Regional Weather Roundup
Issued by NWS

Home | Current Version | Previous Version | Text Only | Print | Product List | Glossary On
Versions: 1 2 3 4 5 6 7 8 9 10 11 12 13 14 15 16 17 18 19 20 21 22 23 24 25 26 27 28 29 30 31 32 33 34 35 36 37 38 39 40 41 42 43 44 45 46 47 48 49 50
000
ASUS43 KDTX 202310
RWRMI
MICHIGAN HOURLY REGIONAL WEATHER ROUNDUP
NATIONAL WEATHER SERVICE DETROIT/PONTIAC MI
700 PM EDT FRI OCT 20 2017

NOTE: "FAIR" INDICATES FEW OR NO CLOUDS BELOW 12,000 FEET WITH NO
SIGNIFICANT WEATHER AND/OR OBSTRUCTION TO VISIBILITY.

MIZ047>049-052>055-059>063-066>070-074>076-081>083-210000-
SOUTHEAST LOWER MICHIGAN

CITY           SKY/WX    TMP DP  RH WIND       PRES   REMARKS
ADRIAN         CLOUDY    68  51  54 S6        30.16S
ALMA           CLOUDY    69  48  47 SW9       30.10S
ANN ARBOR      CLOUDY    65  49  56 SE3       30.15S
BAD AXE        CLOUDY    62  47  58 S6        30.11S
CARO           CLOUDY    65  47  50 S5        30.11S
DETROIT CITY   CLEAR     63  44  50 S5        30.16F
DETROIT        CLOUDY    65  45  48 S5        30.17S
FLINT          CLOUDY    67  47  48 S6        30.13S
GROSSE ILE     CLEAR     62  45  53 CALM      30.16S
HILLSDALE      CLEAR     68  50  52 CALM      30.15F
HOWELL         CLOUDY    67  48  51 S6        30.14F

CITY           SKY/WX    TMP DP  RH WIND       PRES   REMARKS
JACKSON        CLOUDY    68  51  54 SE5       30.14F
LAMBERTVILLE   CLOUDY    64  53  65 CALM      30.16R
LANSING        CLOUDY    69  51  52 S7        30.13S
LAPEER         FAIR      64  46  52 S5        30.14S
MASON          CLOUDY    69  51  52 E6        30.14S
MONROE         CLEAR     62  48  61 S5        30.15S
MT. CLEMENS    MOCLDY    55  49  81 S8        30.13F
PONTIAC        CLOUDY    64  48  56 S7        30.14F
PORT HOPE        N/A     68  49  50 S5        30.09R
PORT HURON     CLEAR     59  43  55 S3        30.15F
TRI CITIES     PTCLDY    69  52  54 S7        30.10S
MIDLAND        FAIR      70  51  51 S6        30.08S
TROY           CLEAR     65  44  45 S5        30.17S
SAGINAW HB     PTCLDY    64  50  59 S6        30.10S
$$
MIZ043>046-050>051-056>058-064>065-071>073-077>080-210000-
SOUTHWEST LOWER MICHIGAN

CITY           SKY/WX    TMP DP  RH WIND       PRES   REMARKS
BATTLE CREEK   CLEAR     68  52  56 S5        30.13S
BENTON HARBOR  CLEAR     70  49  47 SE5       30.09S
BIG RAPIDS     CLEAR     68  46  45 S6        30.08R
COLDWATER      CLEAR     69  49  49 CALM      30.13F
FREMONT        FAIR      67  50  53 CALM      30.07S
HOLLAND        CLEAR     69  51  52 S6        30.09S
GRAND RAPIDS   CLOUDY    69  52  54 S8        30.10S
IONIA          FAIR      69  50  51 S7        30.10S
KALAMAZOO      CLEAR     69  49  48 S5        30.12F
LUDINGTON      PTCLDY    65  51  60 S5        30.04S
MARSHALL       CLEAR     68  51  54 SE3       30.13S
MOUNT PLEASANT CLOUDY    73  48  42 S3        30.08S
MUSKEGON       MOCLDY    69  51  52 S9        30.07F
SOUTH HAVEN    CLEAR     71  50  47 CALM      30.09S
$$
MIZ016>042-210000-
NORTHERN LOWER MICHIGAN

CITY           SKY/WX    TMP DP  RH WIND       PRES   REMARKS
ALPENA         CLEAR     71  51  49 SW7       30.03S
BEAVER ISLAND  CLEAR     66  51  59 SW12G18   29.98S
BELLAIRE       CLEAR     63  52  67 CALM      30.01S
CADILLAC       CLEAR     69  46  42 SW10G18   30.07R
CHARLEVOIX     CLEAR     70  50  48 S7        30.02S
FRANKFORT      CLEAR     68  52  55 SW5       30.02S
GAYLORD        CLOUDY    68  47  46 SW8       30.04S
GRAYLING       CLOUDY    69  47  45 S3        30.06S
HARBOR SPRINGS CLEAR     67  50  53 CALM      30.00R
HOUGHTON LAKE  CLOUDY    67  48  50 S7        30.07S
MANISTEE       CLOUDY    68  52  56 S8        30.03S
OSCODA         CLEAR     67  50  53 S3        30.05S
PELLSTON       CLEAR     70  51  51 SE5       30.00S
ROGERS CITY    CLEAR     66  51  58 S5        30.02R
TRAVERSE CITY  CLOUDY    73  48  41 SW7       30.00S
$$
MIZ007>008-015-210000-
EASTERN UPPER MICHIGAN

CITY           SKY/WX    TMP DP  RH WIND       PRES   REMARKS
KINROSS        CLEAR     65  52  62 SW7       29.99S
MACKINAC ISLAN CLEAR     64  52  64 W5        29.99S
NEWBERRY       CLEAR     60  56  87 S12G18    29.96R
S. S. MARIE    CLEAR     65  52  62 S6        29.97F
MUNISING         N/A     65  55  70 S9G18     29.90S
$$
MIZ004>006-011>014-085-210000-
CENTRAL UPPER MICHIGAN

CITY           SKY/WX    TMP DP  RH WIND       PRES   REMARKS
MANISTIQUE     PTCLDY    55  50  81 S6        29.96S
ESCANABA       PTCLDY    61  55  81 S8        29.94S
MENOMINEE      CLOUDY    68  50  52 S6        29.95F
SAWYER-GWINN   CLEAR     70  48  46 S13       29.91S
$$
MIZ001>003-009>011-084-210000-
WESTERN UPPER MICHIGAN

CITY           SKY/WX    TMP DP  RH WIND       PRES   REMARKS
IRON MOUNTAIN  PTCLDY    69  45  41 S8        29.91S
HOUGHTON       CLOUDY    76  34  21 SW8G22    29.81R
COPPER HARBOR    N/A     63  50  62 SW5       29.79F
IRONWOOD       PTCLDY    72  44  36 S13G18    29.80
$$

ABBREVIATIONS USED IN REMARKS
   TC - TEMPERATURE IN CELSIUS
  WCI - WIND CHILL INDEX
   HX - HEAT INDEX
  VSB - VISIBILITY




USA.gov is the U.S. government's official web portal to all federal, state and local government web resources and services.